DW1223 Weather Reports


Display with metric or nautical units.
time (UTC)temp
F
wind
direction
speed
MPH
gust
MPH
rain 1hr
in
rain 24hr
in
rain mn
in
humidity
%
barometer
mb
20260505124012 45 253 1.0 1.0 0.00 0.00 0.00 53 1016.2
20260505123508 44 268 2.0 2.0 0.00 0.00 0.00 53 1016.2
20260505123004 44 291 1.0 1.0 0.00 0.00 0.00 54 1016.1
20260505122501 45 224 2.0 2.0 0.00 0.00 0.00 51 1016.0
20260505121958 45 298 1.0 1.0 0.00 0.00 0.00 47 1016.1
20260505121455 44 322 1.0 1.0 0.00 0.00 0.00 50 1016.0
20260505120951 44 284 0.0 1.0 0.00 0.00 0.00 51 1015.8
20260505120447 44 284 0.0 1.0 0.00 0.00 0.00 50 1015.9
20260505115946 44 285 1.0 1.0 0.00 0.00 0.00 53 1016.0
20260505115443 44 284 1.0 1.0 0.00 0.00 0.00 56 1015.7
20260505114942 44 272 0.0 1.0 0.00 0.00 0.00 54 1015.9
20260505114437 44 290 2.0 2.0 0.00 0.00 0.00 55 1016.0
20260505113934 44 292 2.0 2.0 0.00 0.00 0.00 60 1015.9
20260505113430 44 288 2.0 2.0 0.00 0.00 0.00 59 1016.2
20260505112926 45 282 2.0 2.0 0.00 0.00 0.00 55 1016.0
20260505112424 45 250 2.0 3.0 0.00 0.00 0.00 55 1015.8
20260505111920 45 245 3.0 3.0 0.00 0.00 0.00 51 1016.0
20260505111415 46 261 2.0 2.0 0.00 0.00 0.00 51 1015.9
20260505110911 47 296 1.0 2.0 0.00 0.00 0.00 45 1015.9
20260505110408 47 274 1.0 1.0 0.00 0.00 0.00 43 1015.8
20260505101833 48 328 1.0 1.0 0.00 0.00 0.00 45 1015.8
20260505101328 48 347 0.0 0.0 0.00 0.00 0.00 42 1015.7
20260505100824 48 351 1.0 1.0 0.00 0.00 0.00 40 1015.9
20260505100321 48 341 1.0 1.0 0.00 0.00 0.00 41 1015.7
20260505095817 48 292 1.0 2.0 0.00 0.00 0.00 42 1016.1
20260505095315 48 304 1.0 1.0 0.00 0.00 0.00 42 1015.7
20260505094810 48 322 1.0 1.0 0.00 0.00 0.00 42 1015.7
20260505094308 47 355 2.0 2.0 0.00 0.00 0.00 43 1015.6
20260505093803 47 141 1.0 1.0 0.00 0.00 0.00 46 1015.7
20260505093301 48 47 0.0 0.0 0.00 0.00 0.00 45 1015.6
20260505092757 47 61 0.0 0.0 0.00 0.00 0.00 43 1015.8
20260505092256 48 24 0.0 0.0 0.00 0.00 0.00 45 1015.7
20260505091753 48 97 0.0 1.0 0.00 0.00 0.00 46 1015.8
20260505091251 48 36 1.0 2.0 0.00 0.00 0.00 44 1015.8
20260505090748 48 8 0.0 0.0 0.00 0.00 0.00 43 1015.8
20260505090246 49 345 0.0 1.0 0.00 0.00 0.00 42 1015.8
20260505085743 49 353 1.0 1.0 0.00 0.00 0.00 43 1015.9
20260505085241 49 353 1.0 1.0 0.00 0.00 0.00 43 1015.7
20260505084738 48 7 1.0 2.0 0.00 0.00 0.00 43 1016.0
20260505084238 48 9 1.0 1.0 0.00 0.00 0.00 44 1015.8
20260505083734 47 53 0.0 0.0 0.00 0.00 0.00 46 1015.8
20260505083231 46 349 0.0 0.0 0.00 0.00 0.00 52 1015.9
20260505082726 46 348 0.0 1.0 0.00 0.00 0.00 52 1015.8
20260505082224 47 341 0.0 0.0 0.00 0.00 0.00 57 1015.8
20260505081719 47 294 1.0 1.0 0.00 0.00 0.00 52 1015.8
20260505081217 47 84 0.0 0.0 0.00 0.00 0.00 51 1015.7
20260505080714 47 82 0.0 0.0 0.00 0.00 0.00 52 1015.8
20260505080210 46 64 0.0 0.0 0.00 0.00 0.00 52 1015.8
20260505075706 46 63 0.0 0.0 0.00 0.00 0.00 56 1015.8
20260505075203 46 77 0.0 0.0 0.00 0.00 0.00 60 1015.8
20260505074700 45 94 0.0 1.0 0.00 0.00 0.00 60 1015.9
20260505074157 46 276 1.0 1.0 0.00 0.00 0.00 63 1015.9
20260505073655 46 281 2.0 2.0 0.00 0.00 0.00 57 1015.9
20260505073153 45 322 1.0 1.0 0.00 0.00 0.00 57 1015.8
20260505072648 45 310 1.0 1.0 0.00 0.00 0.00 61 1015.7
20260505072145 45 310 0.0 1.0 0.00 0.00 0.00 63 1015.7
20260505071640 46 309 0.0 1.0 0.00 0.00 0.00 60 1015.6
20260505071138 45 325 1.0 1.0 0.00 0.00 0.00 57 1015.7
20260505070635 45 333 0.0 0.0 0.00 0.00 0.00 58 1015.7
20260505070132 45 332 1.0 1.0 0.00 0.00 0.00 62 1015.7
20260505065627 45 271 0.0 0.0 0.00 0.00 0.00 61 1015.5
20260505065124 45 271 0.0 0.0 0.00 0.00 0.00 64 1015.6
20260505064621 45 298 1.0 2.0 0.00 0.00 0.00 62 1015.6
20260505064120 45 291 2.0 2.0 0.00 0.00 0.00 62 1015.7
20260505063617 44 292 2.0 2.0 0.00 0.00 0.00 62 1015.9
20260505063112 44 269 2.0 2.0 0.00 0.00 0.00 64 1015.6
20260505062609 45 296 1.0 2.0 0.00 0.00 0.00 62 1015.5
20260505062106 44 287 1.0 1.0 0.00 0.00 0.00 61 1015.7
20260505061603 44 283 3.0 3.0 0.00 0.00 0.00 64 1015.7
20260505061102 45 272 2.0 3.0 0.00 0.00 0.00 63 1015.8
20260505060559 45 303 2.0 2.0 0.00 0.00 0.00 62 1015.5
20260505060056 45 286 2.0 2.0 0.00 0.00 0.00 63 1015.5
20260505055551 44 274 2.0 3.0 0.00 0.00 0.00 63 1015.6
20260505055048 43 271 2.0 2.0 0.00 0.00 0.00 67 1015.6
20260505054545 43 258 4.0 4.0 0.00 0.00 0.00 70 1015.5
20260505054043 43 283 3.0 3.0 0.00 0.00 0.00 68 1015.7
20260505053540 43 276 3.0 3.0 0.00 0.00 0.00 67 1015.9
20260505053037 43 277 2.0 3.0 0.00 0.00 0.00 67 1015.7
20260505052534 44 281 3.0 3.0 0.00 0.00 0.00 66 1015.7
20260505052031 44 274 3.0 3.0 0.00 0.00 0.00 62 1015.6
20260505051528 45 274 2.0 3.0 0.00 0.00 0.00 62 1015.4
20260505051026 44 274 2.0 2.0 0.00 0.00 0.00 62 1015.4
20260505050524 45 316 1.0 1.0 0.00 0.00 0.00 61 1015.4
20260505041451 46 270 3.0 3.0 0.00 0.00 0.00 59 1015.4
20260505040949 46 312 1.0 2.0 0.00 0.00 0.00 60 1015.5
20260505040446 47 273 2.0 2.0 0.00 0.00 0.00 60 1015.4
20260505035943 47 283 2.0 2.0 0.00 0.00 0.00 58 1015.1
20260505035439 48 5 0.0 0.0 0.00 0.00 0.00 57 1015.0
20260505034936 48 251 2.0 2.0 0.00 0.00 0.00 53 1015.0
20260505034432 49 315 1.0 1.0 0.00 0.00 0.00 52 1014.9
20260505033930 50 74 1.0 1.0 0.00 0.00 0.00 53 1015.1
20260505033426 51 310 1.0 2.0 0.00 0.00 0.00 49 1015.1
20260505032925 51 300 2.0 2.0 0.00 0.00 0.00 47 1014.9
20260505032422 51 305 3.0 3.0 0.00 0.00 0.00 45 1014.9
20260505031918 52 336 1.0 2.0 0.00 0.00 0.00 46 1014.8
20260505031415 52 294 2.0 2.0 0.00 0.00 0.00 45 1014.8
20260505030912 52 294 2.0 3.0 0.00 0.00 0.00 45 1014.8
20260505030408 52 324 3.0 3.0 0.00 0.00 0.00 45 1014.8
20260505025903 53 323 2.0 3.0 0.00 0.00 0.00 45 1014.7
20260505025401 53 307 2.0 3.0 0.00 0.00 0.00 44 1014.6
20260505024900 53 312 3.0 4.0 0.00 0.00 0.00 44 1014.6
20260505024357 53 3 3.0 4.0 0.00 0.00 0.00 43 1014.7
20260505023854 53 299 4.0 4.0 0.00 0.00 0.00 44 1014.5
20260505023351 54 298 7.0 8.0 0.00 0.00 0.00 43 1014.6
20260505022848 54 31 3.0 4.0 0.00 0.00 0.00 44 1014.5
20260505022345 54 10 6.0 9.0 0.00 0.00 0.00 44 1014.6
20260505021842 54 5 9.0 14.0 0.00 0.00 0.00 43 1014.5
20260505021338 55 20 6.0 7.0 0.00 0.00 0.00 43 1014.4
20260505020834 55 41 4.0 4.0 0.00 0.00 0.00 43 1014.2
20260505020330 55 12 4.0 7.0 0.00 0.00 0.00 43 1014.2
20260505015827 55 3 5.0 8.0 0.00 0.00 0.00 43 1014.2
20260505015324 55 8 4.0 6.0 0.00 0.00 0.00 43 1014.5
20260505014821 56 6 3.0 4.0 0.00 0.00 0.00 43 1014.5
20260505014318 56 7 4.0 4.0 0.00 0.00 0.00 43 1014.4
20260505013815 56 0 7.0 9.0 0.00 0.00 0.00 42 1014.2
20260505013312 57 15 2.0 3.0 0.00 0.00 0.00 43 1014.4
20260505012811 57 350 5.0 7.0 0.00 0.00 0.00 42 1014.1
20260505012308 57 4 5.0 7.0 0.00 0.00 0.00 42 1014.4
20260505011804 57 3 4.0 4.0 0.00 0.00 0.00 41 1014.2
20260505011301 58 30 1.0 1.0 0.00 0.00 0.00 44 1014.2
20260505010757 58 345 8.0 10.0 0.00 0.00 0.00 41 1014.2
20260505010253 58 2 5.0 6.0 0.00 0.00 0.00 41 1014.4
20260505005749 58 8 5.0 8.0 0.00 0.00 0.00 40 1014.1
20260505005246 58 355 0.0 1.0 0.00 0.00 0.00 43 1014.1
20260505004743 58 33 2.0 2.0 0.00 0.00 0.00 43 1014.2
20260505004239 57 4 7.0 8.0 0.00 0.00 0.00 42 1014.1
20260505003737 58 21 4.0 7.0 0.00 0.00 0.00 42 1014.4
20260505003235 58 14 2.0 3.0 0.00 0.00 0.00 43 1014.1
20260505002731 59 357 8.0 10.0 0.00 0.00 0.00 41 1014.1
20260505002228 60 356 2.0 2.0 0.00 0.00 0.00 41 1014.1
20260505001725 60 50 2.0 2.0 0.00 0.00 0.00 41 1014.0
20260505001223 61 359 4.0 4.0 0.00 0.00 0.00 40 1014.0
20260505000720 62 359 4.0 6.0 0.00 0.00 0.00 39 1013.9
20260505000219 62 64 1.0 2.0 0.00 0.00 0.00 41 1014.0
20260504235714 62 53 4.0 6.0 0.00 0.00 0.00 38 1013.8
20260504235210 61 19 2.0 3.0 0.00 0.00 0.00 39 1013.7
20260504234708 61 20 8.0 9.0 0.00 0.00 0.00 38 1013.8
20260504234205 61 51 6.0 11.0 0.00 0.00 0.00 40 1013.8
20260504233700 62 103 5.0 7.0 0.00 0.00 0.00 39 1013.8
20260504233156 61 115 4.0 6.0 0.00 0.00 0.00 38 1014.0
20260504232654 61 339 8.0 9.0 0.00 0.00 0.00 39 1014.1
20260504232151 61 74 9.0 11.0 0.00 0.00 0.00 39 1013.9
20260504231648 62 10 5.0 8.0 0.00 0.00 0.00 39 1013.9
20260504231144 62 29 3.0 3.0 0.00 0.00 0.00 39 1013.9
20260504230640 62 109 4.0 6.0 0.00 0.00 0.00 40 1013.9
20260504230139 62 37 7.0 8.0 0.00 0.00 0.00 39 1013.7
20260504225637 62 47 3.0 7.0 0.00 0.00 0.00 39 1013.8
20260504225133 63 0 2.0 4.0 0.00 0.00 0.00 40 1013.7
20260504224630 62 343 3.0 6.0 0.00 0.00 0.00 40 1013.7
20260504224127 62 59 2.0 3.0 0.00 0.00 0.00 40 1013.8
20260504223624 62 7 4.0 4.0 0.00 0.00 0.00 39 1013.8
20260504223120 62 66 2.0 3.0 0.00 0.00 0.00 38 1013.8
20260504222617 62 55 7.0 10.0 0.00 0.00 0.00 37 1013.8
20260504222114 62 15 1.0 2.0 0.00 0.00 0.00 41 1013.6
20260504221611 63 34 2.0 2.0 0.00 0.00 0.00 39 1013.4
20260504221108 62 21 2.0 2.0 0.00 0.00 0.00 39 1013.5
20260504220604 63 99 4.0 6.0 0.00 0.00 0.00 37 1013.5
20260504215558 63 131 4.0 4.0 0.00 0.00 0.00 38 1013.6
20260504215056 64 6 2.0 2.0 0.00 0.00 0.00 36 1013.6
20260504214551 63 39 5.0 6.0 0.00 0.00 0.00 38 1013.6
20260504214048 62 106 4.0 4.0 0.00 0.00 0.00 38 1013.5
20260504213544 62 90 4.0 6.0 0.00 0.00 0.00 39 1013.5
20260504213041 63 107 5.0 9.0 0.00 0.00 0.00 38 1013.5
20260504212537 63 19 4.0 6.0 0.00 0.00 0.00 39 1013.4
20260504212035 63 64 3.0 3.0 0.00 0.00 0.00 37 1013.4
20260504211531 62 69 0.0 1.0 0.00 0.00 0.00 40 1013.6
20260504211028 62 86 1.0 2.0 0.00 0.00 0.00 37 1013.5
20260504210525 62 85 4.0 6.0 0.00 0.00 0.00 39 1013.6
20260504210022 63 89 4.0 4.0 0.00 0.00 0.00 37 1013.6
20260504205520 63 96 6.0 7.0 0.00 0.00 0.00 37 1013.5
20260504205018 63 55 6.0 8.0 0.00 0.00 0.00 36 1013.5
20260504204515 63 18 2.0 3.0 0.00 0.00 0.00 38 1013.5
20260504204014 63 141 2.0 3.0 0.00 0.00 0.00 37 1013.5
20260504203512 63 89 6.0 8.0 0.00 0.00 0.00 38 1013.6
20260504203009 63 67 4.0 6.0 0.00 0.00 0.00 39 1013.6
20260504202505 63 20 1.0 2.0 0.00 0.00 0.00 38 1013.7
20260504202001 62 14 3.0 6.0 0.00 0.00 0.00 43 1013.5
20260504201459 62 101 4.0 6.0 0.00 0.00 0.00 40 1013.7
20260504200956 62 35 3.0 3.0 0.00 0.00 0.00 39 1013.6
20260504200453 62 118 2.0 3.0 0.00 0.00 0.00 40 1013.7
20260504195949 63 32 4.0 8.0 0.00 0.00 0.00 40 1013.6
20260504195445 64 104 8.0 9.0 0.00 0.00 0.00 37 1013.5
20260504194942 64 94 5.0 6.0 0.00 0.00 0.00 39 1013.7
20260504194438 63 120 3.0 4.0 0.00 0.00 0.00 39 1013.8
20260504193934 64 51 6.0 8.0 0.00 0.00 0.00 38 1013.6
20260504193432 62 12 1.0 1.0 0.00 0.00 0.00 42 1013.7
20260504192930 62 102 6.0 7.0 0.00 0.00 0.00 40 1013.8
20260504192427 64 67 1.0 2.0 0.00 0.00 0.00 37 1013.8
20260504191926 63 136 3.0 6.0 0.00 0.00 0.00 38 1013.9
20260504191424 62 61 4.0 4.0 0.00 0.00 0.00 37 1013.8
20260504190919 63 335 2.0 2.0 0.00 0.00 0.00 37 1013.8
20260504190414 62 120 3.0 6.0 0.00 0.00 0.00 39 1013.8
20260504185911 62 89 3.0 4.0 0.00 0.00 0.00 40 1013.8
20260504185409 63 5 4.0 6.0 0.00 0.00 0.00 39 1014.0
20260504184904 63 327 5.0 7.0 0.00 0.00 0.00 38 1013.8
20260504184400 63 111 2.0 3.0 0.00 0.00 0.00 38 1014.1
20260504183856 62 128 5.0 6.0 0.00 0.00 0.00 41 1014.1
20260504183354 62 82 6.0 8.0 0.00 0.00 0.00 36 1014.1
20260504182851 63 113 1.0 2.0 0.00 0.00 0.00 38 1013.9
20260504182349 62 44 2.0 2.0 0.00 0.00 0.00 40 1014.0
20260504181845 61 62 1.0 2.0 0.00 0.00 0.00 36 1013.9
20260504181343 62 114 4.0 4.0 0.00 0.00 0.00 40 1014.2
20260504180842 61 63 3.0 4.0 0.00 0.00 0.00 38 1014.0
20260504180340 62 114 6.0 7.0 0.00 0.00 0.00 37 1014.2
20260504175838 62 70 2.0 3.0 0.00 0.00 0.00 42 1014.1
20260504175334 62 64 2.0 3.0 0.00 0.00 0.00 37 1014.1
20260504174832 61 28 4.0 4.0 0.00 0.00 0.00 39 1014.1
20260504174329 61 40 4.0 4.0 0.00 0.00 0.00 42 1014.2
20260504173826 61 97 2.0 3.0 0.00 0.00 0.00 38 1014.2
20260504173323 61 116 4.0 6.0 0.00 0.00 0.00 37 1014.4
20260504172820 61 29 2.0 2.0 0.00 0.00 0.00 38 1014.4
20260504172316 60 174 4.0 4.0 0.00 0.00 0.00 37 1014.4
20260504171812 61 80 6.0 7.0 0.00 0.00 0.00 39 1014.2
20260504171310 61 16 1.0 2.0 0.00 0.00 0.00 40 1014.4
20260504170807 61 1 4.0 4.0 0.00 0.00 0.00 40 1014.2
20260504170304 60 40 0.0 1.0 0.00 0.00 0.00 38 1014.1
20260504160222 58 82 3.0 4.0 0.00 0.00 0.00 40 1014.5
20260504151150 56 25 4.0 4.0 0.00 0.00 0.00 44 1014.7
20260504150647 56 11 4.0 4.0 0.00 0.00 0.00 47 1014.6
20260504150144 56 15 5.0 7.0 0.00 0.00 0.00 45 1014.9
20260504141113 54 14 1.0 2.0 0.00 0.00 0.00 46 1014.5
20260504140610 53 326 3.0 4.0 0.00 0.00 0.00 47 1014.6
20260504140105 53 356 2.0 2.0 0.00 0.00 0.00 48 1014.7
20260504130534 51 315 5.0 6.0 0.00 0.00 0.00 47 1013.8